DLH6TP EPGD-EDDF

Flight info

Callsign DLH6TP
Flight time 1h 21m
Altitude 38000
Route DEXIR T671 VEKON L730 UNVOX DCT ALUKA DCT KOSIX DCT NIMAB T171 MAIXE/N0410F300 T171 LASTO T178 ROBEL/N0369F240 T178 KERAX KERAX5A
Aircraft A319/M-SDE2E3FGIJ1LORWXYZ/HB1

Departure

Time 2026-05-05 13:25
Airport Gdańsk Lech Wałęsa Airport (EPGD)

Arrival

Time 2026-05-05 14:47
Airport Frankfurt Main Airport (EDDF)
Time Latitude Longitude Altitude Speed Heading
2026-05-05 12:51 54.38105 18.46672 453 ft 0 kts 22°
2026-05-05 13:16 54.38098 18.46667 453 ft 4 kts 23°
2026-05-05 13:17 54.38073 18.46648 451 ft 4 kts 25°
2026-05-05 13:17 54.38054 18.46633 452 ft 4 kts 25°
2026-05-05 13:17 54.38030 18.46613 452 ft 4 kts 25°
2026-05-05 13:17 54.38007 18.46595 453 ft 4 kts 14°
2026-05-05 13:18 54.37984 18.46599 450 ft 4 kts 304°
2026-05-05 13:18 54.37973 18.46640 452 ft 3 kts 291°
2026-05-05 13:18 54.37972 18.46647 452 ft 0 kts 292°
2026-05-05 13:20 54.37977 18.46625 453 ft 3 kts 292°
2026-05-05 13:21 54.37977 18.46584 454 ft 5 kts 252°
2026-05-05 13:21 54.37966 18.46511 453 ft 7 kts 269°
2026-05-05 13:21 54.37979 18.46443 452 ft 6 kts 293°
2026-05-05 13:21 54.37997 18.46375 453 ft 8 kts 293°
2026-05-05 13:22 54.38025 18.46257 452 ft 14 kts 292°
2026-05-05 13:22 54.38068 18.46082 451 ft 16 kts 292°
2026-05-05 13:22 54.38112 18.45902 452 ft 16 kts 293°
2026-05-05 13:22 54.38157 18.45715 450 ft 17 kts 275°
2026-05-05 13:23 54.38099 18.45635 451 ft 10 kts 212°
2026-05-05 13:23 54.38041 18.45580 453 ft 9 kts 218°
2026-05-05 13:23 54.38042 18.45481 452 ft 10 kts 288°
2026-05-05 13:23 54.38085 18.45371 453 ft 11 kts 321°
2026-05-05 13:24 54.38138 18.45265 453 ft 13 kts 285°
2026-05-05 13:24 54.38092 18.45251 453 ft 9 kts 111°
2026-05-05 13:24 54.38068 18.45361 453 ft 13 kts 114°
2026-05-05 13:24 54.37942 18.45867 456 ft 91 kts 112°
2026-05-05 13:25 54.37604 18.47315 504 ft 161 kts 108°
2026-05-05 13:25 54.37190 18.49054 1272 ft 160 kts 111°
2026-05-05 13:25 54.36734 18.50817 2053 ft 163 kts 114°
2026-05-05 13:25 54.36258 18.52599 2824 ft 165 kts 114°
2026-05-05 13:26 54.35812 18.54412 3520 ft 165 kts 113°
2026-05-05 13:26 54.35356 18.56308 4041 ft 182 kts 114°
2026-05-05 13:26 54.34842 18.58414 4530 ft 201 kts 114°
2026-05-05 13:26 54.34262 18.60741 4943 ft 226 kts 115°
2026-05-05 13:27 54.33478 18.63192 5585 ft 240 kts 133°
2026-05-05 13:27 54.32151 18.64891 6533 ft 239 kts 159°
2026-05-05 13:27 54.30570 18.65510 7474 ft 236 kts 183°
2026-05-05 13:27 54.28986 18.64938 8415 ft 233 kts 207°
2026-05-05 13:28 54.27537 18.63695 9428 ft 233 kts 209°
2026-05-05 13:28 54.26176 18.62226 10370 ft 232 kts 224°
2026-05-05 13:28 54.25257 18.59981 11205 ft 235 kts 248°
2026-05-05 13:28 54.25016 18.57094 11647 ft 261 kts 272°
2026-05-05 13:29 54.25238 18.53885 12041 ft 283 kts 271°
2026-05-05 13:29 54.25234 18.50400 12420 ft 302 kts 265°
2026-05-05 13:29 54.25013 18.46793 13134 ft 308 kts 256°
2026-05-05 13:29 54.24434 18.43242 13936 ft 312 kts 253°
2026-05-05 13:30 54.23851 18.39708 14673 ft 315 kts 253°
2026-05-05 13:30 54.23255 18.36084 15421 ft 318 kts 253°
2026-05-05 13:30 54.22650 18.32425 16157 ft 322 kts 253°
2026-05-05 13:30 54.22038 18.28729 16892 ft 325 kts 253°
2026-05-05 13:31 54.21417 18.24995 17627 ft 328 kts 253°
2026-05-05 13:31 54.20785 18.21224 18341 ft 332 kts 252°
2026-05-05 13:31 54.20153 18.17474 18971 ft 334 kts 252°
2026-05-05 13:31 54.19510 18.13643 19636 ft 337 kts 252°
2026-05-05 13:32 54.18862 18.09789 20316 ft 339 kts 252°
2026-05-05 13:32 54.18209 18.05911 20977 ft 341 kts 252°
2026-05-05 13:32 54.17552 18.02012 21642 ft 343 kts 252°
2026-05-05 13:32 54.16887 17.98085 22292 ft 346 kts 252°
2026-05-05 13:33 54.16217 17.94133 22949 ft 348 kts 252°
2026-05-05 13:33 54.15538 17.90156 23567 ft 351 kts 252°
2026-05-05 13:33 54.14850 17.86145 24108 ft 353 kts 252°
2026-05-05 13:33 54.14167 17.82166 24655 ft 356 kts 252°
2026-05-05 13:34 54.13471 17.78102 25187 ft 358 kts 252°
2026-05-05 13:34 54.12768 17.74008 25705 ft 361 kts 251°
2026-05-05 13:34 54.12056 17.69895 26207 ft 363 kts 251°
2026-05-05 13:34 54.11337 17.65754 26700 ft 365 kts 251°
2026-05-05 13:35 54.10611 17.61592 27179 ft 368 kts 251°
2026-05-05 13:35 54.09879 17.57406 27658 ft 370 kts 251°
2026-05-05 13:35 54.09153 17.53246 28123 ft 372 kts 251°
2026-05-05 13:35 54.08415 17.49008 28593 ft 375 kts 252°
2026-05-05 13:36 54.07676 17.44736 29061 ft 377 kts 252°
2026-05-05 13:36 54.06934 17.40441 29531 ft 380 kts 252°
2026-05-05 13:36 54.06183 17.36115 29986 ft 382 kts 252°
2026-05-05 13:36 54.05426 17.31765 30357 ft 385 kts 252°
2026-05-05 13:37 54.04664 17.27393 30732 ft 387 kts 252°
2026-05-05 13:37 54.03893 17.22994 31097 ft 389 kts 252°
2026-05-05 13:37 54.03115 17.18575 31460 ft 391 kts 252°
2026-05-05 13:37 54.02341 17.14199 31894 ft 391 kts 252°
2026-05-05 13:38 54.01557 17.09781 32411 ft 389 kts 252°
2026-05-05 13:38 54.00776 17.05383 32915 ft 388 kts 252°
2026-05-05 13:38 53.99998 17.01000 33424 ft 387 kts 252°
2026-05-05 13:38 53.99219 16.96629 33922 ft 386 kts 252°
2026-05-05 13:39 53.98441 16.92267 34344 ft 385 kts 252°
2026-05-05 13:39 53.97660 16.87913 34707 ft 386 kts 252°
2026-05-05 13:39 53.96873 16.83558 35054 ft 386 kts 252°
2026-05-05 13:39 53.96093 16.79259 35390 ft 386 kts 252°
2026-05-05 13:40 53.95301 16.74896 35708 ft 387 kts 252°
2026-05-05 13:40 53.94507 16.70525 36029 ft 388 kts 252°
2026-05-05 13:40 53.93710 16.66152 36336 ft 388 kts 252°
2026-05-05 13:40 53.92912 16.61775 36642 ft 388 kts 252°
2026-05-05 13:41 53.92111 16.57396 36935 ft 389 kts 251°
2026-05-05 13:41 53.91054 16.53178 37221 ft 390 kts 242°
2026-05-05 13:41 53.89615 16.49277 37503 ft 391 kts 238°
2026-05-05 13:41 53.88116 16.45433 37778 ft 391 kts 238°
2026-05-05 13:42 53.86631 16.41630 37897 ft 392 kts 238°
2026-05-05 13:42 53.85130 16.37779 37912 ft 391 kts 238°
2026-05-05 13:42 53.82136 16.30104 37911 ft 390 kts 238°
2026-05-05 13:43 53.79138 16.22449 37909 ft 390 kts 238°
2026-05-05 13:43 53.76137 16.14807 37907 ft 390 kts 238°
2026-05-05 13:44 53.73159 16.07215 37907 ft 390 kts 238°
2026-05-05 13:44 53.70151 15.99594 37901 ft 390 kts 238°
2026-05-05 13:45 53.67133 15.91992 37902 ft 390 kts 237°
2026-05-05 13:45 53.64111 15.84407 37901 ft 390 kts 237°
2026-05-05 13:46 53.61109 15.76878 37902 ft 390 kts 237°
2026-05-05 13:46 53.58084 15.69313 37902 ft 389 kts 237°
2026-05-05 13:47 53.55064 15.61760 37903 ft 389 kts 237°
2026-05-05 13:47 53.52042 15.54217 37902 ft 389 kts 237°
2026-05-05 13:48 53.48696 15.47139 37906 ft 390 kts 232°
2026-05-05 13:48 53.45234 15.40133 37899 ft 390 kts 232°
2026-05-05 13:49 53.41774 15.33135 37895 ft 389 kts 232°
2026-05-05 13:49 53.38311 15.26158 37898 ft 389 kts 232°
2026-05-05 13:50 53.34868 15.19236 37895 ft 389 kts 232°
2026-05-05 13:50 53.31396 15.12283 37895 ft 389 kts 232°
2026-05-05 13:51 53.27919 15.05341 37890 ft 389 kts 232°
2026-05-05 13:51 53.24442 14.98409 37889 ft 389 kts 232°
2026-05-05 13:52 53.20979 14.91536 37885 ft 389 kts 232°
2026-05-05 13:52 53.17487 14.84623 37883 ft 390 kts 232°
2026-05-05 13:53 53.13989 14.77719 37882 ft 390 kts 232°
2026-05-05 13:53 53.10487 14.70826 37879 ft 390 kts 232°
2026-05-05 13:54 53.07001 14.63969 37870 ft 391 kts 232°
2026-05-05 13:54 53.03478 14.57078 37868 ft 391 kts 231°
2026-05-05 13:55 52.99953 14.50186 37865 ft 392 kts 232°
2026-05-05 13:55 52.96419 14.43292 37865 ft 392 kts 231°
2026-05-05 13:56 52.92871 14.36404 37868 ft 393 kts 231°
2026-05-05 13:56 52.89316 14.29522 37860 ft 393 kts 231°
2026-05-05 13:57 52.85767 14.22708 37853 ft 394 kts 231°
2026-05-05 13:57 52.82178 14.15856 37864 ft 394 kts 231°
2026-05-05 13:58 52.78589 14.09007 37861 ft 394 kts 231°
2026-05-05 13:58 52.74995 14.02164 37856 ft 394 kts 231°
2026-05-05 13:59 52.69608 13.91966 37853 ft 395 kts 231°
2026-05-05 14:00 52.64801 13.82895 37859 ft 395 kts 231°
2026-05-05 14:00 52.60572 13.74943 37851 ft 395 kts 231°
2026-05-05 14:01 52.56976 13.68206 37862 ft 395 kts 231°
2026-05-05 14:01 52.53351 13.61422 37857 ft 395 kts 231°
2026-05-05 14:02 52.49728 13.54656 37855 ft 394 kts 231°
2026-05-05 14:02 52.46101 13.47910 37855 ft 394 kts 231°
2026-05-05 14:03 52.42475 13.41185 37866 ft 394 kts 231°
2026-05-05 14:03 52.38870 13.34519 37867 ft 393 kts 230°
2026-05-05 14:04 52.35245 13.27813 37865 ft 393 kts 230°
2026-05-05 14:04 52.31617 13.21126 37863 ft 393 kts 230°
2026-05-05 14:05 52.27979 13.14462 37864 ft 393 kts 230°
2026-05-05 14:05 52.24371 13.07853 37864 ft 392 kts 230°
2026-05-05 14:06 52.20742 13.01208 37859 ft 392 kts 230°
2026-05-05 14:06 52.17222 12.94436 37861 ft 391 kts 232°
2026-05-05 14:07 52.13776 12.87582 37861 ft 391 kts 232°
2026-05-05 14:07 52.10325 12.80759 37861 ft 390 kts 232°
2026-05-05 14:08 52.06874 12.74020 37858 ft 390 kts 231°
2026-05-05 14:08 52.03392 12.67262 37861 ft 390 kts 231°
2026-05-05 14:09 51.99911 12.60518 37865 ft 389 kts 231°
2026-05-05 14:09 51.96434 12.53804 37862 ft 388 kts 231°
2026-05-05 14:10 51.92984 12.47153 37867 ft 388 kts 231°
2026-05-05 14:10 51.89509 12.40469 37863 ft 388 kts 231°
2026-05-05 14:11 51.86032 12.33807 37862 ft 387 kts 231°
2026-05-05 14:11 51.82552 12.27159 37858 ft 387 kts 231°
2026-05-05 14:12 51.79095 12.20578 37851 ft 387 kts 230°
2026-05-05 14:12 51.75609 12.13969 37853 ft 387 kts 230°
2026-05-05 14:13 51.72118 12.07360 37854 ft 386 kts 230°
2026-05-05 14:13 51.68632 12.00771 37846 ft 386 kts 230°
2026-05-05 14:14 51.65173 11.94233 37851 ft 386 kts 230°
2026-05-05 14:14 51.61687 11.87661 37847 ft 386 kts 230°
2026-05-05 14:15 51.58193 11.81111 37844 ft 386 kts 230°
2026-05-05 14:15 51.54694 11.74572 37841 ft 386 kts 230°
2026-05-05 14:16 51.51189 11.68044 37848 ft 386 kts 230°
2026-05-05 14:16 51.47683 11.61526 37847 ft 386 kts 230°
2026-05-05 14:17 51.44202 11.55055 37842 ft 386 kts 229°
2026-05-05 14:17 51.40693 11.48559 37844 ft 385 kts 229°
2026-05-05 14:18 51.37179 11.42084 37840 ft 385 kts 229°
2026-05-05 14:18 51.33660 11.35603 37434 ft 385 kts 229°
2026-05-05 14:19 51.31938 11.32438 37029 ft 379 kts 229°
2026-05-05 14:19 51.30216 11.29281 36607 ft 374 kts 229°
2026-05-05 14:19 51.28516 11.26166 36187 ft 370 kts 229°
2026-05-05 14:19 51.26833 11.23086 35764 ft 366 kts 229°
2026-05-05 14:20 51.25167 11.20038 35339 ft 363 kts 229°
2026-05-05 14:20 51.23518 11.17021 34917 ft 359 kts 229°
2026-05-05 14:20 51.21880 11.14027 34493 ft 356 kts 229°
2026-05-05 14:20 51.20258 11.11063 34071 ft 354 kts 229°
2026-05-05 14:21 51.18644 11.08120 33613 ft 351 kts 229°
2026-05-05 14:21 51.17063 11.05240 33154 ft 349 kts 229°
2026-05-05 14:21 51.15470 11.02344 32714 ft 346 kts 229°
2026-05-05 14:21 51.13888 10.99476 32275 ft 344 kts 229°
2026-05-05 14:22 51.12311 10.96620 31841 ft 342 kts 229°
2026-05-05 14:22 51.10745 10.93781 31413 ft 341 kts 228°
2026-05-05 14:22 51.09184 10.90957 30994 ft 339 kts 228°
2026-05-05 14:22 51.07624 10.88145 30571 ft 338 kts 228°
2026-05-05 14:23 51.06070 10.85350 30157 ft 337 kts 228°
2026-05-05 14:23 51.04517 10.82565 29734 ft 336 kts 228°
2026-05-05 14:23 51.02997 10.79837 29328 ft 332 kts 228°
2026-05-05 14:23 51.01491 10.77079 28937 ft 329 kts 231°
2026-05-05 14:24 51.00256 10.74045 28561 ft 326 kts 240°
2026-05-05 14:24 50.99188 10.70887 28181 ft 323 kts 240°
2026-05-05 14:24 50.98119 10.67757 27810 ft 322 kts 239°
2026-05-05 14:24 50.97050 10.64645 27423 ft 321 kts 239°
2026-05-05 14:25 50.95982 10.61544 27029 ft 320 kts 239°
2026-05-05 14:25 50.94917 10.58458 26648 ft 318 kts 239°
2026-05-05 14:25 50.93855 10.55384 26253 ft 317 kts 239°
2026-05-05 14:25 50.92700 10.52446 25566 ft 322 kts 231°
2026-05-05 14:26 50.91311 10.49575 24715 ft 334 kts 231°
2026-05-05 14:26 50.89859 10.46636 23945 ft 343 kts 230°
2026-05-05 14:26 50.88381 10.43664 23429 ft 343 kts 231°
2026-05-05 14:26 50.86930 10.40668 22907 ft 342 kts 231°
2026-05-05 14:27 50.85513 10.37666 22447 ft 339 kts 232°
2026-05-05 14:27 50.84119 10.34677 21996 ft 336 kts 232°
2026-05-05 14:27 50.82736 10.31708 21545 ft 334 kts 232°
2026-05-05 14:27 50.81358 10.28765 21105 ft 332 kts 232°
2026-05-05 14:28 50.80003 10.25892 20679 ft 329 kts 232°
2026-05-05 14:28 50.78634 10.23004 20257 ft 327 kts 232°
2026-05-05 14:28 50.77273 10.20135 19831 ft 325 kts 231°
2026-05-05 14:28 50.75922 10.17285 19416 ft 323 kts 232°
2026-05-05 14:29 50.74576 10.14447 18996 ft 322 kts 232°
2026-05-05 14:29 50.73233 10.11623 18583 ft 321 kts 232°
2026-05-05 14:29 50.71885 10.08789 18162 ft 325 kts 231°
2026-05-05 14:29 50.70530 10.05943 17707 ft 324 kts 232°
2026-05-05 14:30 50.69199 10.03152 17295 ft 321 kts 232°
2026-05-05 14:30 50.67860 10.00351 16897 ft 319 kts 231°
2026-05-05 14:30 50.66529 9.97569 16492 ft 317 kts 231°
2026-05-05 14:30 50.65208 9.94806 16110 ft 315 kts 231°
2026-05-05 14:31 50.63894 9.92061 15721 ft 313 kts 231°
2026-05-05 14:31 50.62586 9.89329 15342 ft 312 kts 231°
2026-05-05 14:31 50.61284 9.86610 14957 ft 310 kts 231°
2026-05-05 14:31 50.59987 9.83903 14582 ft 309 kts 231°
2026-05-05 14:32 50.58689 9.81204 14200 ft 309 kts 231°
2026-05-05 14:32 50.57413 9.78557 13828 ft 308 kts 231°
2026-05-05 14:32 50.56116 9.75875 13427 ft 308 kts 231°
2026-05-05 14:32 50.54822 9.73198 13031 ft 306 kts 231°
2026-05-05 14:33 50.53541 9.70543 12652 ft 304 kts 231°
2026-05-05 14:33 50.52263 9.67960 12532 ft 293 kts 230°
2026-05-05 14:33 50.51009 9.65509 12463 ft 282 kts 229°
2026-05-05 14:33 50.49790 9.63162 12395 ft 272 kts 229°
2026-05-05 14:34 50.48602 9.60881 12334 ft 270 kts 229°
2026-05-05 14:34 50.47425 9.58627 12276 ft 271 kts 229°
2026-05-05 14:34 50.46234 9.56343 12218 ft 270 kts 229°
2026-05-05 14:34 50.45045 9.54059 12153 ft 270 kts 229°
2026-05-05 14:35 50.43857 9.51773 12093 ft 270 kts 229°
2026-05-05 14:35 50.42670 9.49493 12023 ft 270 kts 229°
2026-05-05 14:35 50.41485 9.47218 11973 ft 270 kts 229°
2026-05-05 14:35 50.40301 9.44941 11911 ft 269 kts 229°
2026-05-05 14:36 50.39118 9.42665 11851 ft 269 kts 229°
2026-05-05 14:36 50.37952 9.40424 11793 ft 269 kts 229°
2026-05-05 14:36 50.36770 9.38153 11731 ft 269 kts 229°
2026-05-05 14:36 50.35588 9.35887 11672 ft 269 kts 229°
2026-05-05 14:37 50.34403 9.33621 11607 ft 269 kts 229°
2026-05-05 14:37 50.33219 9.31363 11368 ft 268 kts 229°
2026-05-05 14:37 50.32039 9.29106 11051 ft 267 kts 229°
2026-05-05 14:37 50.30864 9.26855 10712 ft 267 kts 229°
2026-05-05 14:38 50.29687 9.24602 10363 ft 268 kts 229°
2026-05-05 14:38 50.28510 9.22350 10010 ft 268 kts 229°
2026-05-05 14:38 50.27345 9.20130 9665 ft 268 kts 229°
2026-05-05 14:38 50.26159 9.17879 9272 ft 268 kts 229°
2026-05-05 14:39 50.24973 9.15630 8903 ft 268 kts 229°
2026-05-05 14:39 50.23787 9.13379 8527 ft 269 kts 229°
2026-05-05 14:39 50.22601 9.11130 8145 ft 267 kts 229°
2026-05-05 14:39 50.21424 9.08898 7767 ft 266 kts 229°
2026-05-05 14:40 50.20251 9.06678 7371 ft 265 kts 229°
2026-05-05 14:40 50.19205 9.04710 7016 ft 264 kts 229°
2026-05-05 14:40 50.18053 9.02542 6676 ft 261 kts 229°
2026-05-05 14:40 50.16930 9.00419 6611 ft 246 kts 229°
2026-05-05 14:41 50.15872 8.98414 6518 ft 233 kts 229°
2026-05-05 14:41 50.14889 8.96492 6425 ft 221 kts 235°
2026-05-05 14:41 50.14272 8.94339 6168 ft 218 kts 248°
2026-05-05 14:41 50.13753 8.92121 5827 ft 218 kts 250°
2026-05-05 14:42 50.13250 8.89895 5483 ft 217 kts 250°
2026-05-05 14:42 50.12736 8.87693 5205 ft 214 kts 249°
2026-05-05 14:42 50.12210 8.85547 4946 ft 210 kts 248°
2026-05-05 14:42 50.11699 8.83453 4671 ft 209 kts 249°
2026-05-05 14:43 50.11213 8.81306 4343 ft 212 kts 250°
2026-05-05 14:43 50.10722 8.79134 4090 ft 214 kts 250°
2026-05-05 14:43 50.10209 8.76947 3833 ft 218 kts 249°
2026-05-05 14:43 50.09651 8.74686 3487 ft 230 kts 249°
2026-05-05 14:44 50.09079 8.72319 3083 ft 235 kts 250°
2026-05-05 14:44 50.08523 8.69931 2721 ft 232 kts 250°
2026-05-05 14:44 50.07980 8.67599 2426 ft 226 kts 250°
2026-05-05 14:44 50.07440 8.65347 2095 ft 220 kts 249°
2026-05-05 14:45 50.06915 8.63154 1767 ft 211 kts 250°
2026-05-05 14:45 50.06424 8.61078 1490 ft 198 kts 250°
2026-05-05 14:45 50.05971 8.59174 1300 ft 182 kts 250°
2026-05-05 14:45 50.05550 8.57411 1043 ft 161 kts 250°
2026-05-05 14:46 50.05186 8.55887 745 ft 141 kts 250°
2026-05-05 14:46 50.04860 8.54541 565 ft 128 kts 249°
2026-05-05 14:46 50.04556 8.53272 391 ft 123 kts 250°
2026-05-05 14:46 50.04294 8.52162 337 ft 78 kts 249°
2026-05-05 14:47 50.04186 8.51726 337 ft 30 kts 245°
2026-05-05 14:47 50.04062 8.51481 335 ft 26 kts 218°
2026-05-05 14:47 50.03986 8.51383 333 ft 2 kts 219°
2026-05-05 14:47 50.03966 8.51363 333 ft 5 kts 204°
2026-05-05 14:48 50.03925 8.51370 331 ft 8 kts 152°
2026-05-05 14:48 50.03905 8.51446 336 ft 8 kts 77°
2026-05-05 14:48 50.03925 8.51523 336 ft 8 kts 69°
2026-05-05 14:48 50.03943 8.51600 336 ft 8 kts 70°
2026-05-05 14:49 50.03963 8.51687 337 ft 9 kts 66°
2026-05-05 14:49 50.03992 8.51806 340 ft 13 kts 71°
2026-05-05 14:49 50.04022 8.51943 341 ft 13 kts 70°
2026-05-05 14:49 50.04053 8.52076 351 ft 13 kts 69°
2026-05-05 14:50 50.04088 8.52208 351 ft 13 kts 68°
2026-05-05 14:50 50.04120 8.52340 348 ft 13 kts 70°
2026-05-05 14:50 50.04152 8.52474 347 ft 14 kts 69°
2026-05-05 14:50 50.04195 8.52655 347 ft 21 kts 70°
2026-05-05 14:51 50.04246 8.52867 356 ft 20 kts 69°
2026-05-05 14:51 50.04293 8.53066 357 ft 19 kts 70°
2026-05-05 14:51 50.04336 8.53247 361 ft 17 kts 69°
2026-05-05 14:51 50.04377 8.53413 363 ft 16 kts 69°
2026-05-05 14:52 50.04400 8.53586 365 ft 17 kts 84°
2026-05-05 14:52 50.04412 8.53772 362 ft 18 kts 84°
2026-05-05 14:52 50.04425 8.53966 362 ft 18 kts 84°
2026-05-05 14:52 50.04438 8.54166 362 ft 19 kts 84°
2026-05-05 14:53 50.04452 8.54369 362 ft 15 kts 86°
2026-05-05 14:53 50.04442 8.54539 362 ft 16 kts 107°
2026-05-05 14:53 50.04382 8.54692 366 ft 15 kts 134°
2026-05-05 14:53 50.04312 8.54770 362 ft 10 kts 152°
2026-05-05 14:54 50.04244 8.54811 364 ft 11 kts 161°
2026-05-05 14:54 50.04168 8.54853 366 ft 9 kts 159°
2026-05-05 14:54 50.04124 8.54878 366 ft 0 kts 160°
2026-05-05 14:54 50.04117 8.54882 364 ft 2 kts 160°
2026-05-05 14:55 50.04076 8.54906 362 ft 11 kts 159°
2026-05-05 14:55 50.04015 8.54980 361 ft 12 kts 101°
2026-05-05 14:55 50.04041 8.55107 365 ft 13 kts 69°
2026-05-05 14:55 50.04074 8.55244 365 ft 14 kts 71°
2026-05-05 14:56 50.04104 8.55376 363 ft 10 kts 69°
2026-05-05 14:56 50.04130 8.55484 364 ft 11 kts 70°
2026-05-05 14:56 50.04158 8.55602 364 ft 12 kts 69°
2026-05-05 14:56 50.04189 8.55728 363 ft 13 kts 70°
2026-05-05 14:57 50.04220 8.55864 361 ft 13 kts 70°
2026-05-05 14:57 50.04265 8.55960 361 ft 11 kts 21°
2026-05-05 14:57 50.04343 8.55929 367 ft 12 kts 340°
2026-05-05 14:57 50.04429 8.55912 361 ft 13 kts
2026-05-05 14:58 50.04520 8.55954 365 ft 11 kts 18°
2026-05-05 14:58 50.04557 8.55990 363 ft 5 kts 49°
2026-05-05 14:58 50.04574 8.56044 362 ft 6 kts 64°
2026-05-05 14:58 50.04612 8.56047 365 ft 6 kts 334°
2026-05-05 14:59 50.04647 8.56026 365 ft 1 kts 339°
2026-05-05 14:59 50.04648 8.56026 365 ft 0 kts 339°